FENGYUN 1C DEB, 32114

Orbit data source: Space-Track

FENGYUN 1C DEB, 32114 is space debris in SSO originally from a launch on Mon, 10 May 1999 UTC launched from the Taiyaun Space Center, China (TSC). Fengyun 1C debris stems from the Chinese weather satellite Fengyun-1C, which was intentionally destroyed by a Chinese anti-satellite missile in 2007. This event dramatically increased the amount of space debris, with thousands of trackable fragments posing hazards to satellites and human spaceflight. The Fengyun 1C debris cloud has become a focal point in discussions about space sustainability and the need for international regulations to prevent the creation of new debris.

Loading next visibility...
Identifier
32114, 1999-025CRG
Orbit
SSO
Country
Flag of CNCN / PRC
Related business
Manufacturer
Unknown
Mission
Spacecraft
Bus & Motor
Unknown
Mass
Unknown
Launch date (UTC)
1999-05-10 (27 years ago)
Launch vehicle
Unknown
Launch site
Taiyaun Space Center, China (TSC)
Object type
Payload
Rocket body
Debris
Shape & HBR
Unknown shape, 0.1 m
Radar Cross Section
Small (<0.1 m²)

Expand to show TLE details & history
Last TLE update: 2 days ago

TLE from 2 days ago
0 FENGYUN 1C DEB
1 32114U 99025CRG 26148.18437212  .00015668  00000-0  19401-2 0  9998
2 32114  99.9377 309.2352 0042417 196.3477 163.6364 14.82205327681914
Epoch: 2026-05-28T04:25Z
TLE epoch observation values (Epoch: 2026-05-28T04:25:29.751Z)
Latitude
Longitude
-2.87151°
Altitude
653.835 km
Speed
7.515 km/s
True Right ascension
20h 36m 56s
True Declination
0° 00' 00"
Sunlit
Object was in daylight at epoch
Visualization orbit readout
Latitude
Unknown
Longitude
Unknown
Altitude
Unknown
Speed
Unknown
Apparent Right ascension
Unknown
Apparent Declination
Unknown
Sunlit
N/A
Visualization observer readout
Local Sidereal Time
21:57:46
Azimuth
Unknown
Elevation
Unknown
Doppler factor
Unknown
Orbital elements
Apogee altitude
649.194 km
Perigee altitude
589.83 km
Semi-major axis
6,997.649 km
Eccentricity
0.00424
Inclination
99.9377°
RAAN
309.2352°
Arg. of periapsis
196.3477°
True anomaly
163.77265°
Mean anomaly
163.6364°
Eccentric anomaly
163.70459°
Mean motion
3.70779 °/min
Orbital period
97.09 mins
BSTAR
0.0019401
Loading maneuver chart data...
Computing Atmospheric mass density...
Loading historical data...
Loading historical data...
Loading historical data...
Loading historical data...
Loading historical data...
Loading historical data...
Loading historical data...

Documentation

Showing up to 5 results
|